Location: *
(45.4590°N, 16.3650°E)
Time: 21:35:38
(UTC+00:00)

Cosmos 962 Rocket - Pass Details

Date: 17 January 2020
Orbit: 952 x 998 km, 83.0° (Epoch: 27 February)

Event Time Altitude Azimuth Distance (km) Brightness Sun altitude
Rises 17:21:29 0° 178° (S) 3,612 7.6 -17.5°
Reaches altitude 10° 17:23:58 10° 176° (S) 2,670 6.9 -17.9°
Maximum altitude 17:30:01 70° 94° (E) 1,012 4.3 -19.0°
Drops below altitude 10° 17:36:08 10° 13° (NNE) 2,699 6.6 -20.0°
Sets 17:38:39 0° 11° (N) 3,655 7.3 -20.5°
